Theta_e
291 285 283 281 282 284 286 286 287 285 286 285 284 285 284 283 285 287 288 292 290 289 287 287 287 286 286 288 293 308 312 311 312 314 315 317 318 318 317 317 316 316 318 318 320 321 323 323 324 324 323 321 322 322 323 322 321 320 321 320 318 318 320 321 319 320 322 319 317 317 318 317 314 317 317 317 316 318 320 322 324 326 325 325 327 327
289 284 283 285 286 286 288 287 288 287 288 287 286 285 283 284 283 288 288 289 292 289 285 285 285 285 286 288 291 304 311 311 312 313 314 316 317 317 317 316 316 316 315 318 317 319 321 321 323 322 321 322 320 321 321 321 320 319 319 319 317 317 318 320 321 322 321 317 319 317 316 313 313 315 317 318 313 316 318 318 321 324 323 323 326 327
283 283 286 288 288 289 289 288 289 289 287 287 286 284 285 283 284 288 288 290 292 290 284 285 285 285 287 289 291 305 311 313 314 315 316 316 316 316 316 316 316 314 314 315 317 317 319 320 320 320 321 321 322 321 321 321 319 318 318 317 317 316 316 315 317 319 318 313 316 315 312 314 311 312 313 313 315 315 313 313 315 318 320 323 323 325
283 282 287 289 289 289 288 288 289 288 288 286 283 284 283 283 285 284 287 290 291 290 287 285 286 288 287 289 290 293 301 303 307 310 311 315 316 316 317 317 317 315 313 314 316 317 317 319 318 319 320 321 322 320 319 319 318 318 318 316 316 316 315 313 315 318 315 317 314 313 313 312 312 313 315 312 312 312 312 312 313 315 316 320 321 323
284 288 291 289 289 289 288 288 288 286 285 284 286 282 282 284 283 284 286 289 289 292 288 285 283 284 285 288 290 293 294 300 306 310 310 312 314 313 313 315 316 316 314 314 315 316 316 317 317 318 320 320 320 319 319 319 318 319 317 316 316 316 314 314 318 317 317 316 313 313 313 313 312 312 310 311 310 311 316 313 312 313 314 316 316 318
286 289 290 289 288 288 288 286 287 287 282 282 285 288 287 285 287 286 286 286 279 285 288 285 276 281 283 284 286 288 294 297 301 308 310 312 311 311 314 316 315 315 314 315 315 316 317 317 315 317 319 319 319 319 320 320 319 318 317 316 315 314 314 315 314 317 318 317 314 312 311 309 307 307 308 308 309 309 309 309 310 310 311 312 313 313
287 290 290 288 288 287 287 286 286 289 282 283 286 288 289 286 287 287 288 285 280 281 288 288 280 276 279 287 290 287 289 295 298 304 307 309 311 312 314 315 314 314 313 313 313 314 315 315 315 315 318 319 319 319 320 319 319 318 317 316 315 315 314 314 314 317 318 314 314 314 313 311 310 309 307 306 307 308 308 308 308 307 308 308 310 311
290 290 289 289 288 286 286 285 287 288 284 282 286 287 287 287 287 287 285 284 282 284 289 285 281 280 283 284 286 287 291 295 297 299 302 308 310 310 312 313 313 313 313 314 314 315 316 316 316 316 317 319 320 320 320 319 319 317 316 315 315 315 316 314 315 316 316 314 312 311 310 311 309 310 309 308 308 309 311 308 307 307 306 308 309 310
290 289 287 288 286 284 284 285 288 289 286 285 288 287 286 287 287 286 285 283 283 284 282 280 285 281 278 280 286 288 289 292 294 297 301 304 308 309 310 311 312 313 313 314 314 314 315 315 316 316 317 319 320 321 320 320 319 318 316 316 314 315 315 312 314 316 315 316 313 312 311 311 309 309 310 311 311 310 308 306 305 306 306 307 308 309
289 289 290 289 287 286 287 286 290 291 288 289 289 288 288 288 287 284 281 284 280 279 277 281 284 281 277 277 283 286 286 287 288 293 299 302 306 308 308 309 310 311 311 312 313 313 314 316 316 315 316 318 320 321 322 320 319 318 316 315 314 315 314 313 314 315 314 314 313 311 311 310 310 311 309 309 308 307 306 305 304 305 306 306 307 308
290 296 296 290 289 288 288 287 289 291 290 289 287 286 285 283 282 282 280 281 281 274 275 280 282 281 278 278 284 286 288 288 286 287 289 296 302 305 307 307 309 311 311 312 312 312 312 312 313 313 315 316 317 319 320 320 319 318 316 314 313 315 314 313 313 313 313 312 312 312 311 310 310 309 309 308 306 306 305 305 304 304 305 305 306 308
289 289 292 290 296 291 290 287 287 287 287 288 285 282 284 283 280 280 276 277 274 272 276 279 281 282 279 279 283 285 287 288 291 290 290 293 300 304 306 307 308 310 310 310 311 310 309 309 309 311 313 314 316 318 319 319 318 317 316 314 313 312 312 311 312 312 312 312 312 312 311 311 311 310 310 309 308 306 305 304 304 304 304 304 305 306
287 288 286 289 300 293 289 286 285 285 283 286 284 284 280 276 273 275 274 276 274 274 283 281 281 283 279 279 286 287 289 290 289 291 292 291 295 302 306 307 307 309 309 309 309 309 309 310 309 311 313 313 314 318 320 320 319 318 316 314 312 312 311 310 310 309 309 309 310 311 311 312 312 311 310 309 308 306 305 304 304 304 304 304 306 306
283 284 287 288 290 295 290 285 283 284 283 284 283 279 277 272 270 269 268 270 276 279 280 281 283 280 279 285 288 289 291 291 291 292 292 292 292 294 302 305 305 307 308 307 307 307 307 308 308 308 310 313 313 316 319 319 319 318 317 314 312 310 309 309 309 309 310 310 310 311 312 312 312 310 310 309 309 307 306 305 305 305 305 305 306 305
276 279 284 286 286 290 290 289 288 284 283 284 284 286 282 275 273 268 272 270 274 276 279 282 281 279 282 283 290 290 292 292 296 298 298 297 295 298 303 304 304 304 303 305 307 307 308 310 312 313 314 315 315 315 315 317 319 318 315 313 312 310 309 309 310 311 311 312 312 312 313 313 312 311 311 310 310 308 306 305 305 305 304 305 305 306
281 279 284 288 291 290 289 291 288 284 284 282 282 285 282 280 278 278 274 276 276 278 277 281 278 279 282 288 290 291 295 298 298 299 300 300 301 302 303 304 304 304 306 307 308 309 309 311 311 313 314 315 316 315 316 315 315 317 315 312 312 311 310 310 311 311 312 312 313 314 313 313 314 315 313 312 312 309 308 306 305 305 304 305 305 305
281 281 286 288 290 290 289 290 291 288 282 284 284 282 283 285 284 275 275 278 273 274 274 273 281 280 283 288 289 291 296 297 298 298 300 300 301 301 301 303 304 305 307 308 309 309 310 311 311 312 314 314 314 313 313 315 314 315 313 312 311 311 311 311 311 311 313 314 314 313 313 314 314 314 312 312 312 310 308 306 305 305 305 304 305 306
281 278 284 287 288 291 289 289 288 288 287 283 281 283 286 288 287 281 274 271 267 268 271 276 277 278 277 278 286 291 292 294 296 296 298 299 301 302 302 303 305 306 306 308 310 311 313 313 312 312 313 312 312 311 311 313 314 315 313 313 312 312 311 312 312 312 314 315 314 314 314 314 315 315 314 314 312 310 308 307 306 305 306 305 306 308
284 280 281 285 287 288 289 288 288 288 287 283 282 287 286 279 280 279 277 268 270 269 270 275 276 277 278 280 284 286 287 289 291 293 295 298 299 300 300 302 303 303 305 306 306 305 305 307 309 309 310 311 311 310 311 313 315 315 314 314 314 313 312 313 314 314 315 317 317 317 316 315 316 317 316 315 313 311 309 307 306 307 307 306 307 310
284 279 280 284 286 287 286 285 280 281 286 286 286 285 283 282 280 279 275 278 277 268 266 273 275 275 280 280 285 286 287 288 288 289 293 294 297 298 299 300 301 302 302 303 303 302 303 304 305 307 307 308 308 308 309 310 311 313 313 313 313 313 314 314 315 316 316 316 316 316 317 317 317 316 316 314 313 311 310 309 308 308 307 307 309 307
283 282 277 284 286 286 284 283 281 280 280 284 282 279 281 281 282 281 281 279 276 269 264 269 270 276 282 284 286 288 289 290 289 290 291 293 297 299 298 300 301 302 302 302 302 302 304 304 305 306 305 307 306 307 308 309 310 310 311 312 313 313 313 314 316 316 316 316 316 316 315 316 316 315 313 313 313 312 311 311 310 309 309 309 307 307
280 282 280 281 283 280 284 287 286 283 282 282 280 282 279 278 280 277 274 279 277 275 268 269 267 274 281 289 289 288 289 290 291 291 292 294 297 297 298 299 301 302 301 301 301 302 304 304 304 306 307 308 308 308 308 308 309 310 310 312 313 313 314 315 315 316 315 315 315 314 314 315 315 314 312 312 312 312 311 310 310 310 310 309 309 308
285 281 281 280 283 284 285 287 289 289 287 284 283 283 281 280 277 275 271 276 277 278 277 277 274 274 285 289 289 289 290 292 291 292 293 295 295 295 297 300 300 301 302 302 302 302 302 303 304 305 306 305 305 306 307 307 308 308 309 310 311 312 312 315 315 315 315 314 314 314 314 315 314 313 312 311 311 312 311 310 310 310 309 310 309 309
302 280 280 281 283 285 287 287 288 288 287 285 284 281 281 282 283 278 274 277 276 277 275 273 271 275 284 290 289 290 291 292 294 294 295 296 296 297 298 300 300 301 301 302 302 303 303 303 303 303 303 303 303 303 304 305 307 308 308 309 309 309 310 313 314 314 313 312 312 312 313 313 313 313 313 311 310 311 310 310 309 310 309 308 308 308
283 282 282 277 276 279 282 284 281 283 284 282 283 282 281 280 280 279 278 278 277 278 276 276 271 274 286 289 290 290 290 291 292 295 296 297 296 298 299 299 299 300 301 301 301 302 302 302 301 300 300 299 299 299 300 304 306 307 307 309 310 309 310 311 311 311 311 311 311 311 312 312 312 312 313 313 311 310 310 310 310 311 309 308 308 308
283 282 279 274 273 270 270 271 272 276 281 282 283 281 282 280 279 280 280 275 274 278 277 272 269 276 282 287 287 288 288 290 292 293 295 295 295 296 297 297 297 298 298 299 299 299 299 299 298 298 297 298 298 299 300 302 304 306 306 306 308 308 308 310 311 311 311 311 311 311 311 311 311 312 312 311 310 310 311 311 311 311 311 311 310 310
281 283 282 279 280 279 280 278 281 281 280 279 281 280 282 280 280 280 277 272 274 275 274 277 279 281 282 283 284 285 287 288 289 291 292 293 294 295 295 295 295 295 295 295 295 296 296 296 295 296 296 297 297 298 300 301 303 303 304 304 306 308 309 309 310 311 311 311 311 311 311 310 310 310 311 311 310 310 311 311 312 312 311 312 312 311
280 279 282 282 280 280 279 280 282 282 279 279 280 282 280 279 279 278 276 279 279 281 274 280 279 278 279 281 283 284 285 288 290 291 292 293 293 293 294 294 296 294 294 294 294 293 294 294 294 294 294 295 296 296 298 301 303 303 303 304 305 305 306 308 309 310 310 310 309 309 309 309 310 311 311 311 312 312 312 312 312 312 312 312 312 312
283 279 284 282 281 282 282 282 284 283 282 281 280 280 279 280 280 279 280 279 279 273 275 279 279 279 279 281 283 284 285 288 290 291 291 292 292 292 292 292 292 292 293 293 293 293 294 294 294 294 294 294 295 295 295 295 296 300 302 303 305 306 306 306 308 308 309 309 309 309 310 311 311 312 312 312 312 312 312 312 312 312 312 313 312 313
284 280 283 283 281 282 282 283 284 284 282 282 281 280 281 281 280 280 279 278 278 278 279 279 279 278 281 281 283 284 286 288 289 291 292 292 291 291 291 291 291 291 291 292 292 293 293 293 294 294 295 295 294 294 294 294 294 294 297 299 301 304 305 305 306 307 308 308 309 310 311 311 312 312 312 312 312 312 312 312 312 312 313 313 314 313
288 280 287 283 280 280 283 285 285 284 283 282 282 282 281 281 282 281 281 281 282 280 279 280 279 278 282 283 284 285 285 287 287 288 289 291 291 290 289 289 289 290 291 292 292 293 293 294 294 294 295 295 294 294 295 294 294 294 294 295 297 300 300 303 305 306 307 308 309 311 311 311 312 312 312 312 312 311 312 312 312 312 312 312 312 312
286 281 284 282 278 279 282 283 283 284 284 282 281 281 280 280 279 279 279 281 279 280 279 279 278 275 281 283 284 284 284 285 284 284 285 286 289 289 288 288 288 288 288 290 291 293 294 294 293 294 294 295 295 295 295 295 295 295 294 294 294 295 298 300 302 303 303 306 306 307 308 309 311 310 310 311 311 311 311 311 311 311 311 311 311 311
283 283 279 278 277 275 281 283 283 283 282 280 278 280 280 280 280 281 281 282 281 281 280 278 277 279 281 285 281 282 283 283 284 284 284 285 285 286 287 287 287 287 287 288 289 290 292 294 294 294 294 295 296 295 295 295 296 295 294 294 294 295 294 295 297 300 302 303 305 305 305 307 307 307 307 308 309 310 310 310 310 310 310 310 311 310
282 284 279 281 276 275 279 280 281 279 271 273 281 284 284 280 281 281 279 280 282 281 278 279 281 281 281 281 281 281 282 283 283 284 285 284 284 284 285 286 286 287 287 288 288 289 290 291 293 294 295 295 296 297 295 296 296 296 295 295 295 293 292 292 292 296 298 300 301 302 303 304 304 304 304 304 305 307 308 308 308 308 308 307 307 308
278 277 276 277 273 276 278 279 275 269 271 279 282 284 286 284 283 280 281 281 281 282 282 282 282 283 283 283 282 282 283 283 284 284 285 286 285 284 284 285 286 286 287 287 287 288 289 289 290 291 294 296 296 297 296 296 297 296 296 295 295 294 295 293 292 292 293 297 297 298 299 301 301 301 301 301 302 303 306 306 304 305 304 305 305 305
276 276 275 273 270 273 272 273 270 267 277 280 281 282 284 283 282 283 281 281 281 281 282 281 282 283 283 284 284 284 284 284 284 285 285 285 285 285 285 285 285 286 287 288 288 288 289 291 290 291 293 296 295 295 296 296 296 296 296 295 295 295 295 294 294 294 294 294 294 295 297 299 299 301 300 298 298 301 302 302 303 303 300 299 299 300
281 280 276 274 275 272 268 264 268 277 277 279 278 280 281 280 280 278 274 278 281 281 281 281 281 282 282 283 283 283 284 283 281 283 284 285 285 285 285 285 285 286 286 288 287 287 288 288 289 290 291 291 292 292 293 294 295 295 295 295 296 296 296 295 296 295 295 296 294 295 295 296 297 297 295 295 297 298 299 299 297 296 296 298 297 299
281 281 278 278 274 272 270 266 264 262 263 274 278 280 282 283 283 281 278 277 282 281 282 281 280 281 281 282 281 282 283 283 280 279 282 284 285 285 285 285 285 286 286 285 286 287 287 288 289 290 290 289 290 290 291 292 294 293 293 294 294 295 296 296 296 297 296 296 295 296 295 296 296 296 295 295 296 296 296 296 295 295 296 299 296 297
283 281 279 280 273 270 268 268 266 266 267 273 279 281 281 281 281 280 277 275 280 279 281 280 280 280 280 280 280 281 279 278 277 278 281 283 284 284 284 285 285 285 285 286 285 286 287 288 289 291 289 289 289 290 290 291 292 292 292 292 292 294 294 294 295 296 297 297 297 295 294 296 296 296 295 295 296 297 296 296 296 295 294 295 296 295
282 278 276 274 272 271 269 267 267 264 269 277 279 279 281 280 281 279 270 268 278 279 280 279 279 279 280 280 280 279 277 274 277 277 281 284 285 284 285 285 285 285 286 286 286 287 288 289 288 288 288 288 289 289 290 291 291 292 292 292 291 291 292 293 294 294 296 296 297 295 294 296 298 296 295 294 295 295 296 296 296 295 295 295 297 296
274 275 276 272 269 272 273 267 267 268 276 279 279 281 280 282 281 272 268 270 279 279 280 279 279 279 279 280 278 276 280 279 280 282 283 284 285 286 287 288 288 287 287 288 289 291 288 287 287 287 287 287 287 288 289 290 290 291 291 290 290 291 292 292 293 294 295 296 296 295 294 296 297 298 297 296 295 295 296 296 297 295 296 295 295 295
273 271 273 272 272 268 266 270 268 267 272 280 280 281 281 281 272 268 273 278 279 280 280 279 280 280 279 280 280 279 281 282 284 282 282 283 283 284 286 287 288 289 289 290 291 290 289 288 288 288 288 288 288 289 288 288 289 290 289 289 289 291 292 292 293 293 294 295 295 295 295 295 296 297 298 297 296 296 296 295 296 296 296 296 296 295
274 269 271 269 271 269 267 266 268 268 275 281 280 279 280 273 271 279 280 281 281 280 281 281 281 281 280 281 280 281 279 280 280 281 281 282 283 284 284 285 285 286 286 286 287 288 289 287 287 287 287 288 288 289 289 288 288 289 289 288 290 291 291 292 292 293 293 294 294 295 295 296 297 298 299 298 297 297 296 296 295 295 295 295 295 295
280 272 271 270 276 267 267 267 267 272 277 282 280 274 279 280 282 281 281 280 282 281 281 281 281 282 282 282 282 281 281 281 281 281 282 283 283 283 284 285 285 285 285 286 286 286 288 286 287 287 287 288 289 289 289 288 288 289 289 289 290 290 291 291 292 292 292 293 293 294 294 296 297 296 296 296 296 296 295 295 295 295 295 295 295 294
279 277 277 272 279 273 271 273 278 280 281 283 283 283 283 285 285 286 285 284 283 284 285 284 284 284 284 284 283 283 283 283 282 281 280 281 281 282 283 283 284 284 284 284 285 287 286 286 286 286 286 287 287 288 288 288 287 288 288 289 290 290 290 291 291 291 292 292 293 293 294 294 295 295 293 294 294 293 293 294 295 295 293 295 294 294
281 281 281 280 278 283 283 284 285 284 285 285 287 287 286 287 287 287 287 285 286 286 285 285 285 285 285 283 284 284 283 282 281 281 281 281 281 282 283 283 283 283 283 283 284 284 285 285 285 285 285 286 287 287 287 288 287 287 289 290 290 291 290 291 291 291 291 291 292 293 293 293 294 296 296 296 293 293 294 294 294 295 293 293 293 294
278 279 278 277 281 277 273 282 282 283 284 285 285 288 288 288 287 287 286 285 286 285 284 285 284 284 285 283 284 284 283 281 281 281 280 281 281 281 281 281 282 282 282 282 283 285 284 284 284 284 285 285 286 286 287 287 288 288 289 289 290 290 290 290 290 290 291 290 291 291 291 291 291 293 294 296 294 293 293 293 293 293 294 293 293 291
276 279 276 276 275 270 272 281 282 283 283 284 284 284 285 285 285 285 285 285 284 285 285 285 283 284 282 282 281 280 280 280 280 280 280 280 280 281 281 281 281 282 283 283 283 284 283 283 283 283 284 284 285 286 286 286 286 287 288 288 289 289 289 289 289 289 290 291 291 291 291 291 289 291 292 292 293 293 293 291 292 293 293 293 293 292
277 280 270 275 274 276 277 278 278 280 280 281 282 282 283 283 283 284 284 284 284 284 283 283 283 282 282 282 280 279 280 279 279 279 279 280 280 281 281 282 282 282 282 283 283 284 283 284 284 284 284 284 285 285 285 285 286 287 287 287 288 288 288 288 289 289 289 290 291 291 291 292 291 291 291 290 288 287 289 293 293 295 295 295 296 297
276 273 275 275 270 268 271 277 278 272 270 279 280 280 281 281 282 283 282 284 283 283 281 281 281 281 280 280 280 281 280 280 280 279 279 280 280 281 281 282 282 283 283 284 285 285 285 285 285 284 285 285 285 285 285 285 286 286 287 287 288 288 287 288 288 288 288 289 289 291 292 292 291 291 290 289 288 287 286 284 287 288 292 293 291 292
277 277 272 265 269 266 274 277 281 277 275 275 278 281 280 281 281 282 282 281 280 280 280 280 280 281 282 281 280 280 280 280 280 279 279 280 281 282 282 283 283 284 284 285 285 285 285 285 285 285 285 286 286 286 286 286 286 286 287 287 288 288 288 287 287 287 288 288 288 289 290 290 291 291 290 289 289 289 288 286 287 287 287 288 289 290
Wind_Speed
1 3 4 5 6 6 4 6 7 6 5 3 2 2 3 3 6 5 4 7 2 1 7 7 7 1 5 7 8 8 5 4 5 8 7 6 8 8 7 8 6 7 7 3 5 6 6 5 6 6 5 6 5 5 9 10 10 6 7 7 7 5 7 8 7 6 7 5 3 3 2 3 1 2 1 2 1 1 3 3 4 4 3 3 3 4
4 2 5 7 9 8 5 4 3 4 1 1 0 0 5 3 5 5 4 3 1 5 2 2 5 4 5 7 3 3 7 10 11 10 8 9 8 7 9 9 8 5 2 5 4 5 6 6 9 8 7 8 8 7 9 13 11 8 8 9 7 6 6 8 9 8 6 4 4 5 5 3 3 2 1 0 1 2 2 2 3 4 4 3 2 3
1 3 7 9 3 3 3 4 2 3 2 1 2 1 1 6 5 9 4 2 2 3 4 1 4 2 4 3 1 9 14 11 12 15 15 14 10 8 9 9 7 5 5 4 5 5 7 7 8 9 8 10 12 10 11 9 7 7 8 8 8 7 6 5 6 8 6 2 2 3 3 5 3 1 0 1 1 2 4 3 3 4 5 5 4 3
3 6 11 4 6 4 1 3 4 3 2 3 2 1 4 3 2 6 3 0 5 1 2 1 6 1 4 2 2 4 2 2 0 1 2 5 11 13 13 11 10 8 7 8 8 8 6 7 7 7 8 10 8 8 6 6 8 7 7 7 8 7 5 6 4 5 5 5 6 6 5 5 4 3 2 3 4 4 5 6 4 5 4 4 5 5
8 3 1 7 5 7 4 3 5 4 3 1 4 3 2 2 4 6 4 5 2 1 3 3 5 2 5 2 1 1 1 0 1 4 3 3 3 2 3 4 6 8 7 8 7 7 7 8 9 8 6 5 6 7 8 7 8 7 8 7 8 8 7 5 5 7 8 7 7 6 6 5 5 4 4 4 4 4 3 3 6 5 3 3 4 3
9 7 2 3 4 4 4 2 5 7 4 2 6 8 8 4 4 4 3 4 4 1 4 1 2 1 4 3 3 5 2 4 1 6 8 6 4 4 5 8 6 6 5 7 11 12 10 8 5 6 9 8 7 8 8 9 9 8 7 6 5 6 6 7 6 8 8 8 8 7 6 5 5 3 2 2 2 2 3 2 1 4 5 4 3 3
6 1 5 4 5 4 4 4 4 8 5 2 5 9 8 5 3 1 1 2 1 2 3 1 3 1 5 2 1 4 3 2 1 4 3 4 6 6 6 6 9 9 6 5 4 4 7 8 8 7 9 9 9 7 6 6 6 6 7 7 7 7 6 6 7 7 8 8 7 8 7 6 7 6 2 1 0 2 2 2 5 4 4 4 4 2
1 1 3 3 4 3 2 3 5 9 7 2 2 4 5 5 3 1 4 2 1 1 3 5 3 4 1 1 1 3 0 0 3 4 4 6 7 7 6 6 6 8 8 8 8 8 8 10 12 14 11 10 10 9 8 8 7 9 9 8 7 6 7 6 7 6 8 9 6 6 5 5 6 6 5 2 2 1 1 5 4 4 4 4 4 3
4 1 2 1 2 2 3 5 3 7 7 3 3 7 6 4 2 4 2 2 0 1 2 6 6 5 1 4 2 2 4 1 5 6 6 6 6 7 7 7 7 8 7 7 8 10 12 12 11 9 10 8 8 9 12 12 10 8 7 7 5 6 7 6 6 8 6 8 8 8 7 6 2 3 3 2 2 3 2 5 3 5 4 4 4 4
2 4 2 3 3 3 6 4 7 10 5 3 5 4 6 7 6 3 3 2 1 3 2 1 3 2 2 5 5 3 2 1 5 8 8 7 7 7 7 6 6 5 5 5 5 6 7 7 7 7 5 8 10 8 7 6 7 7 6 7 7 6 6 7 7 7 7 7 8 8 7 8 5 4 4 3 4 3 3 4 3 3 5 4 5 4
3 4 5 3 3 5 3 1 7 6 2 5 5 6 6 8 4 3 7 2 3 1 3 2 3 3 1 3 5 4 1 2 2 4 4 4 5 6 6 6 7 8 6 5 5 5 5 4 5 6 9 7 6 5 5 5 7 6 7 8 8 7 6 6 8 8 9 8 8 9 9 9 9 6 7 6 3 3 3 4 2 3 3 3 4 4
3 2 0 3 1 2 3 3 2 1 1 3 1 3 5 3 6 3 4 6 2 2 3 2 1 1 4 2 1 6 4 5 3 5 4 7 10 11 9 9 8 7 6 5 6 6 6 5 5 4 6 7 7 6 6 5 5 5 6 6 7 4 5 5 6 7 8 8 7 7 9 10 9 10 8 8 7 5 5 4 4 1 4 3 4 3
3 4 2 7 3 7 2 4 2 2 3 5 6 6 6 2 3 2 3 1 2 3 0 1 1 2 2 4 1 3 4 5 5 6 8 5 8 10 10 10 8 6 7 7 5 5 4 4 4 4 5 5 6 8 9 9 7 6 6 6 8 6 5 4 3 4 4 4 3 4 7 7 8 7 8 7 7 5 6 5 4 3 4 4 5 2
6 3 4 5 4 2 6 5 2 0 1 5 4 5 5 2 1 2 1 0 3 4 3 1 1 1 3 6 0 3 4 4 5 7 8 9 7 4 4 3 4 5 6 4 4 6 7 10 12 12 12 10 7 3 6 8 7 7 6 6 6 4 4 5 6 8 9 8 7 5 4 5 6 6 6 6 7 5 4 5 5 5 6 5 5 4
1 4 5 3 2 1 4 7 11 7 7 7 3 9 8 8 5 2 3 3 6 6 2 3 1 3 3 2 5 4 4 4 3 3 4 4 5 4 5 7 6 6 5 7 7 6 7 8 8 6 8 11 12 15 14 4 5 5 5 6 7 7 7 8 9 9 10 9 8 7 7 6 4 4 4 4 5 5 5 4 4 3 3 5 4 5
5 6 6 4 1 2 4 0 4 5 4 0 3 5 7 6 6 3 4 3 3 3 2 1 2 1 2 2 6 3 4 5 4 5 4 4 4 4 6 7 7 8 8 7 8 7 6 7 7 8 7 3 7 11 11 7 3 3 5 6 7 8 8 9 8 6 5 7 10 8 6 4 4 4 3 1 2 2 2 3 5 4 3 3 4 2
1 2 2 7 1 2 3 4 1 5 4 2 3 4 3 2 10 6 2 1 3 4 3 1 3 4 6 2 3 7 6 6 6 6 5 4 5 6 5 5 7 7 8 7 8 6 6 4 2 5 10 12 12 11 10 6 5 4 6 7 7 7 5 5 4 6 9 12 12 6 6 5 4 2 2 0 3 4 2 2 1 3 3 2 2 3
5 5 3 1 1 2 1 2 3 2 4 7 1 5 2 3 6 7 3 3 3 4 3 3 1 4 3 2 6 7 7 6 8 7 5 2 4 8 6 7 9 9 6 5 3 3 3 11 15 11 9 8 7 6 5 6 7 7 8 9 9 8 9 7 7 6 5 8 11 10 11 7 4 4 2 2 4 1 3 2 1 1 2 1 2 3
4 3 2 1 2 5 4 4 6 2 3 4 3 5 3 1 2 2 6 1 2 1 0 1 0 3 1 3 7 8 6 8 7 7 7 5 5 4 4 5 5 4 5 6 5 3 3 3 2 1 1 3 4 4 5 7 8 8 8 10 12 12 8 7 9 10 12 11 7 6 9 2 2 3 8 7 4 3 3 4 3 3 2 2 2 3
1 3 5 1 2 2 2 4 4 1 3 3 3 4 1 2 2 4 4 5 7 3 3 2 1 3 3 2 4 7 5 5 6 5 4 6 4 3 3 4 4 5 6 6 6 1 0 3 5 6 5 3 1 1 2 3 3 5 6 7 5 6 10 11 12 12 11 8 8 7 5 3 4 7 5 4 6 6 5 5 5 5 3 3 2 3
2 1 3 1 2 1 1 2 4 5 5 2 3 1 1 2 1 4 2 1 4 7 5 4 0 2 2 3 6 7 7 7 4 5 4 3 4 4 3 4 5 5 6 3 3 2 4 5 5 4 2 0 2 2 3 3 3 3 3 3 5 10 10 12 12 12 9 9 10 12 10 11 11 9 5 3 4 5 5 5 4 5 5 4 3 4
3 1 6 2 4 2 1 1 3 3 4 6 5 2 6 6 4 5 3 1 2 5 4 5 3 5 4 3 5 7 8 7 6 6 4 1 2 3 3 4 4 4 5 4 3 3 4 3 3 3 4 4 5 4 4 4 4 4 3 4 6 7 8 11 10 10 12 11 9 12 11 12 10 7 4 4 4 4 3 4 3 1 4 6 5 5
3 3 6 3 1 1 1 4 4 1 9 5 6 1 4 1 6 5 5 3 3 1 4 3 6 2 1 4 5 6 7 6 6 5 1 3 3 4 4 3 4 4 6 4 2 3 3 4 6 6 7 8 6 5 4 4 4 4 4 5 4 6 7 9 10 9 11 9 7 8 9 6 4 3 4 4 5 6 5 3 3 2 2 3 5 4
4 2 4 2 2 3 3 3 2 4 2 7 5 3 1 0 0 3 2 6 7 2 1 1 1 3 2 5 6 7 6 5 6 5 6 5 4 4 4 6 6 5 5 5 3 4 5 8 10 9 9 8 5 4 4 3 4 4 4 4 4 5 5 5 5 5 6 6 6 6 7 10 8 6 7 7 6 5 4 4 4 5 3 2 4 5
1 1 7 3 2 4 3 2 4 3 5 4 2 1 0 2 4 3 4 1 7 4 4 7 6 2 1 6 8 11 11 11 10 8 5 7 4 4 6 7 8 8 10 11 10 10 12 12 10 8 6 5 4 3 2 3 4 4 4 4 5 4 6 6 4 4 4 4 6 6 7 6 5 7 9 9 6 5 4 5 5 4 5 4 4 6
5 0 3 6 7 5 4 3 3 1 1 0 1 2 3 3 4 1 2 1 4 1 3 3 2 2 3 8 13 12 12 12 11 9 8 6 6 7 8 8 9 9 9 11 13 14 12 9 8 9 7 7 6 5 4 2 1 3 4 4 4 5 4 6 6 6 5 6 6 6 7 7 7 7 3 2 3 2 5 5 6 6 4 7 7 5
3 2 3 3 7 10 8 6 2 3 2 3 1 2 1 2 2 4 5 4 5 4 2 1 5 3 6 12 12 13 11 10 11 11 10 9 8 7 7 10 10 11 12 13 12 11 11 12 12 8 8 7 6 6 5 5 4 2 2 2 3 4 6 6 7 7 8 7 7 6 6 4 2 2 4 7 5 5 5 6 7 7 7 5 7 7
4 5 3 8 8 3 2 3 1 3 3 1 3 1 2 3 1 5 1 2 3 9 1 0 1 4 3 6 8 9 10 8 9 9 9 10 9 9 9 12 14 15 13 13 13 13 11 9 10 10 10 10 9 8 7 6 5 4 2 1 1 2 3 4 5 6 6 6 6 5 5 6 8 10 10 10 10 9 8 7 7 8 9 9 8 7
3 3 2 6 5 6 6 6 4 6 4 3 4 3 4 4 6 5 0 1 2 3 8 3 5 6 1 3 5 5 5 6 7 8 7 5 8 12 14 15 13 12 12 12 10 10 10 10 9 10 10 10 10 11 9 8 7 6 5 5 3 1 1 2 4 5 5 5 6 7 8 9 9 7 8 8 9 9 9 9 10 8 7 4 2 5
5 3 0 5 5 7 9 9 7 7 3 5 7 6 3 11 7 6 5 3 2 4 8 12 11 7 1 2 4 4 4 4 4 5 10 14 12 11 13 13 12 10 10 9 8 8 8 8 9 9 11 12 12 12 10 9 8 7 5 5 5 3 2 2 0 3 5 6 7 8 10 9 8 9 9 10 11 11 12 11 10 11 12 13 12 8
6 1 3 2 5 4 5 6 8 7 5 6 6 6 4 8 12 7 5 4 10 8 5 12 12 7 2 1 3 3 3 2 10 15 12 9 10 11 13 12 11 10 9 9 8 8 8 9 10 11 12 11 11 10 9 8 6 6 7 6 4 3 4 3 2 1 1 5 7 8 6 6 8 8 8 8 7 6 7 10 10 11 11 9 9 9
5 4 2 2 6 1 1 6 6 9 11 8 4 6 7 4 7 2 4 1 2 8 5 6 8 4 2 2 3 3 4 11 12 9 10 9 9 11 13 11 11 11 11 10 10 10 11 10 10 10 9 9 9 9 10 10 8 9 8 6 6 4 3 3 2 1 1 1 3 3 3 3 5 6 6 6 6 7 6 6 6 7 8 9 10 9
1 8 4 3 6 3 6 7 12 10 7 3 2 1 1 4 4 5 4 5 2 3 10 8 6 3 3 1 6 5 8 9 9 7 7 8 8 9 10 10 9 9 9 9 10 10 10 9 8 8 8 8 9 9 8 7 9 10 8 8 6 5 4 2 0 0 1 1 2 3 3 2 3 4 3 4 4 5 6 6 6 6 7 9 9 8
1 7 5 2 6 5 5 3 1 4 3 5 2 2 1 4 6 9 2 3 3 1 1 3 8 5 5 4 8 6 9 7 6 4 3 4 6 7 8 7 7 6 6 7 7 8 8 8 8 7 6 6 6 6 5 5 6 5 4 5 7 8 5 3 1 0 2 2 3 3 3 3 2 2 1 1 3 4 5 6 7 6 5 5 5 6
3 3 3 2 7 7 3 2 3 3 6 3 6 2 1 5 6 13 7 4 5 5 8 10 9 8 7 6 8 8 7 5 5 7 7 5 5 5 6 6 6 6 6 7 9 8 6 6 7 9 9 8 8 8 9 10 9 7 7 8 8 7 9 8 4 3 1 1 1 2 3 3 2 2 2 2 3 3 5 5 4 5 5 6 7 7
1 6 3 3 3 3 4 3 3 3 2 3 3 3 4 4 2 7 9 5 5 3 2 7 6 5 5 6 5 5 7 7 6 7 6 5 4 5 6 5 4 5 7 5 5 5 6 6 5 5 6 5 6 7 8 7 7 8 8 5 6 6 5 6 8 8 5 1 1 2 3 4 5 5 4 4 3 4 5 4 6 6 4 3 3 2
6 4 4 3 1 6 3 3 1 2 1 3 3 1 1 0 0 1 5 1 1 1 2 5 3 2 2 1 1 2 1 1 6 6 4 4 4 3 3 3 3 4 3 4 3 4 4 3 4 4 3 4 4 7 7 6 6 6 8 9 8 6 6 6 6 6 6 7 3 1 3 3 4 4 4 4 5 5 5 5 4 4 4 5 4 5
3 1 3 6 1 6 7 4 3 4 1 7 5 1 1 0 0 3 5 1 1 2 0 3 4 2 2 0 0 0 3 2 2 2 3 3 3 3 3 2 3 3 4 4 5 5 5 5 5 4 4 5 5 5 4 5 6 7 7 8 8 8 7 6 6 5 5 5 4 2 1 1 2 4 3 5 6 6 4 3 4 5 4 7 6 6
6 6 4 4 4 4 4 7 4 7 7 4 4 1 2 1 3 3 4 1 1 0 2 2 4 1 3 4 1 2 3 2 1 2 3 1 3 2 1 3 3 3 4 5 5 7 8 8 7 6 7 7 8 8 6 5 6 7 7 7 8 7 8 8 8 7 7 7 6 4 2 5 1 1 2 4 5 6 6 6 6 4 3 4 6 6
9 5 4 2 3 1 6 4 3 2 1 1 2 3 2 0 3 3 2 6 4 0 2 2 4 3 1 1 3 6 5 2 1 2 1 1 1 3 1 3 4 3 4 4 5 4 5 6 7 8 9 9 9 8 8 6 6 5 5 5 4 6 6 7 8 9 8 8 8 6 4 3 4 3 3 5 3 3 6 5 6 5 6 4 6 7
5 4 6 1 2 2 5 0 2 2 4 2 2 4 2 3 3 5 8 3 0 2 2 2 2 2 1 2 1 3 0 1 1 2 3 3 3 3 2 1 2 2 4 4 4 5 4 5 5 6 7 7 7 7 7 8 8 8 5 4 4 5 5 6 7 8 8 6 7 8 5 5 4 6 6 6 4 2 1 3 6 6 6 7 6 7
3 2 1 3 5 2 2 5 2 1 3 1 3 3 3 4 4 7 2 1 3 2 2 2 2 1 1 1 1 2 0 3 4 4 4 4 3 4 3 3 4 4 3 3 5 7 7 6 6 6 7 7 8 8 7 6 7 8 7 6 6 6 5 5 5 5 7 8 7 7 8 4 4 4 5 6 6 5 3 1 3 4 6 6 7 8
1 2 1 1 0 2 3 4 2 2 1 2 4 2 3 2 2 3 3 0 1 2 1 1 2 2 3 1 1 1 2 3 3 3 4 4 4 5 7 8 9 9 9 10 9 7 7 7 8 7 6 7 7 7 7 6 6 6 6 7 8 7 6 5 5 5 5 7 8 7 7 8 3 3 3 6 7 9 8 7 6 6 6 8 7 8
0 2 0 0 1 2 2 2 2 0 4 5 1 2 1 2 6 3 5 2 1 1 1 1 1 1 1 0 1 1 1 1 3 3 5 5 7 8 8 7 7 8 9 8 6 7 7 7 6 8 6 5 6 6 6 6 8 7 7 8 7 6 5 5 6 5 5 6 7 7 6 6 7 3 1 2 3 6 7 6 6 7 7 7 7 7
4 2 1 3 2 1 2 4 2 0 2 4 5 6 4 4 3 2 3 3 3 1 1 0 2 2 1 2 3 3 4 3 2 2 2 3 4 4 5 6 7 7 7 8 9 9 9 9 11 11 12 8 5 5 5 5 6 8 9 8 5 6 7 7 7 7 7 7 7 6 6 6 4 7 4 2 3 4 4 5 5 6 3 7 6 6
2 3 3 5 3 4 6 5 2 2 3 6 6 4 5 3 4 3 3 2 1 0 2 1 0 1 3 2 2 5 3 4 5 5 4 3 3 4 4 4 5 5 5 6 6 7 7 9 10 10 12 13 9 7 4 5 5 8 9 8 8 7 7 7 8 7 7 7 7 8 6 4 7 5 6 7 5 1 2 6 5 5 4 3 5 6
1 0 2 5 3 2 1 0 1 2 1 1 3 2 1 1 2 2 3 2 1 2 1 1 1 1 1 0 2 4 5 4 4 4 4 5 6 6 6 7 6 5 6 8 7 6 8 7 9 10 11 13 12 10 9 6 6 8 7 8 9 9 8 8 8 8 7 6 7 8 6 5 4 5 10 9 5 3 1 0 1 4 7 7 6 5
1 1 7 2 3 2 2 4 2 1 1 1 0 1 2 2 2 1 1 1 1 2 2 1 1 0 1 0 1 1 2 2 2 5 5 5 6 6 7 7 9 9 8 6 7 6 7 8 9 11 11 11 10 9 11 11 10 9 8 8 7 8 9 10 9 8 9 9 7 7 6 7 7 7 7 7 8 7 8 2 2 4 4 5 6 7
1 1 2 2 3 1 3 1 1 2 4 3 3 2 2 2 0 1 1 2 3 3 2 3 1 1 2 2 3 2 1 3 3 4 4 5 5 6 7 8 8 9 9 10 10 8 9 9 11 11 12 12 9 9 10 11 12 11 10 9 7 7 9 10 9 8 9 9 8 7 7 7 6 6 7 7 5 4 4 8 9 10 9 8 9 11
1 3 1 4 4 1 5 5 5 3 2 5 4 4 3 1 2 0 1 0 0 0 1 3 3 1 2 3 2 1 2 4 4 3 4 5 6 7 8 8 9 10 10 9 9 10 12 12 11 12 12 12 10 9 10 10 10 10 10 9 8 7 8 8 7 7 8 7 7 7 6 5 6 5 6 5 5 4 3 3 2 3 7 9 5 4
2 3 4 4 7 3 6 7 7 4 1 3 4 2 3 1 2 2 2 2 2 0 1 2 2 0 0 1 2 1 4 4 6 3 4 5 7 6 7 9 11 12 12 12 12 13 12 13 15 14 14 12 11 11 11 11 11 10 9 8 9 7 8 7 7 8 8 7 7 7 7 6 5 6 5 3 4 4 5 4 4 6 5 4 4 8
Wind_Direction
146 138 182 199 211 217 227 188 189 190 145 111 100 127 203 218 279 279 270 260 120 191 237 220 225 120 217 218 202 194 140 127 152 172 178 186 172 164 172 187 198 202 207 164 154 158 168 143 144 148 160 153 158 180 148 164 221 177 153 140 145 153 149 144 145 143 142 130 104 64 104 146 191 164 135 118 95 95 126 131 127 121 120 126 140 140
68 108 253 215 208 198 211 167 94 86 83 135 141 270 296 188 255 240 241 334 12 173 272 227 200 168 216 233 231 156 161 186 182 178 180 186 183 177 171 184 198 194 102 135 143 160 164 149 151 152 161 159 173 196 173 186 186 164 151 149 148 155 161 160 159 154 154 162 163 153 170 153 139 110 116 107 35 128 119 100 104 115 114 108 118 132
27 206 240 222 175 125 104 126 158 166 140 57 189 195 265 273 243 279 282 321 309 184 258 154 148 180 240 297 272 180 186 199 189 181 184 175 181 181 180 184 183 157 172 164 174 169 173 160 156 160 167 176 187 180 183 185 156 156 154 149 151 165 159 159 154 146 151 126 100 113 151 126 98 71 83 117 24 45 70 51 92 115 122 117 110 120
293 280 251 201 150 129 68 101 110 74 65 126 88 97 225 236 39 302 283 282 339 47 303 113 100 358 325 272 269 252 235 337 137 104 127 191 184 186 188 183 179 182 169 175 180 186 176 162 156 162 173 186 179 168 164 161 164 163 157 154 155 158 155 149 162 134 116 110 96 79 92 76 96 105 47 49 42 39 41 25 14 42 69 108 125 135
206 202 66 119 143 152 167 183 129 126 229 286 177 163 241 248 235 172 271 330 305 68 96 67 51 11 3 73 305 255 342 21 75 122 126 163 162 122 117 154 182 190 182 177 177 181 175 175 178 167 172 176 172 174 169 167 171 170 168 166 161 153 157 155 148 134 128 109 85 86 70 73 70 47 40 41 21 24 65 51 20 2 32 64 75 78
272 250 167 114 162 182 147 147 203 148 206 300 226 194 207 194 225 255 328 19 24 333 26 97 46 336 298 292 258 289 5 190 267 169 190 175 166 176 190 193 173 176 185 194 188 184 182 170 145 160 168 183 180 182 179 176 174 163 164 159 154 143 149 150 156 147 135 133 130 119 111 94 73 70 60 117 144 77 57 74 83 25 21 35 50 52
210 316 152 196 171 178 178 194 228 165 172 85 268 202 206 176 200 248 330 86 4 101 330 33 126 256 324 71 58 328 337 251 321 214 195 168 186 196 208 197 188 182 181 194 180 159 168 171 166 175 178 181 183 186 174 174 173 164 161 164 161 159 157 151 157 151 129 130 143 147 147 146 150 150 238 249 45 117 91 68 78 92 54 37 59 39
143 280 80 54 93 108 137 267 237 150 112 228 245 124 117 132 187 192 106 122 189 239 295 38 83 123 69 292 216 291 40 355 282 263 225 204 199 202 203 206 197 183 183 185 186 180 181 180 178 184 179 181 184 173 171 175 177 173 173 169 166 167 160 156 155 149 142 140 142 124 115 131 149 161 173 164 108 47 93 73 44 61 69 77 89 102
162 171 136 99 99 108 188 214 181 144 136 218 193 145 153 161 143 120 88 121 145 132 269 328 351 71 288 268 339 72 102 229 249 239 235 227 216 206 202 199 200 195 190 184 185 181 182 186 189 176 179 180 171 178 180 184 179 172 170 165 158 173 159 155 160 147 150 144 144 138 135 125 111 111 111 103 61 73 48 77 27 52 47 55 55 69
280 187 217 145 138 229 227 208 167 166 162 260 156 92 84 73 66 97 94 74 339 70 259 283 3 136 282 282 340 341 88 277 249 239 233 221 216 212 207 205 196 191 188 196 194 190 190 189 188 184 155 168 184 185 183 174 166 166 163 164 165 181 162 160 159 149 145 139 138 138 145 141 132 117 95 94 91 73 62 82 45 49 56 45 57 50
253 289 171 129 211 208 168 226 181 184 111 124 102 67 21 39 29 16 61 82 64 27 265 250 303 142 248 261 202 112 221 204 255 298 268 223 230 219 208 197 195 194 189 182 174 176 172 167 165 158 177 177 159 164 167 172 174 166 167 166 172 183 160 162 158 153 152 151 154 151 154 149 146 148 137 123 102 101 93 109 82 77 72 57 64 62
343 360 225 246 103 114 115 85 33 100 96 123 68 109 52 354 12 30 346 39 94 272 260 278 254 119 151 295 302 249 305 295 274 270 238 214 210 210 199 195 196 184 176 170 164 165 153 142 156 157 169 169 172 154 163 175 167 171 173 159 161 162 159 167 160 155 155 154 159 157 154 152 155 154 155 152 156 164 151 146 137 96 82 67 60 55
317 252 236 313 245 167 118 75 341 34 9 76 74 52 119 237 43 244 7 204 181 180 222 322 272 38 218 215 171 290 266 285 268 251 274 239 233 220 200 194 180 165 163 170 168 158 154 147 150 182 184 162 167 181 178 172 173 172 166 158 160 170 157 148 121 114 106 115 133 149 153 151 152 154 154 152 151 172 156 155 137 127 124 107 94 77
282 288 330 281 327 193 130 132 161 94 360 115 140 133 102 96 62 205 287 247 318 285 264 328 290 238 258 302 43 304 290 263 270 274 263 266 246 245 248 166 137 153 154 132 88 60 53 48 36 19 5 349 334 290 189 168 170 170 163 150 148 120 106 113 129 143 146 147 136 124 140 145 145 152 155 153 156 169 161 154 156 161 155 155 156 158
6 343 290 145 244 300 151 168 182 173 170 200 123 146 177 146 155 197 191 175 202 190 268 287 70 218 139 234 329 295 276 294 284 274 275 255 250 210 145 126 121 114 98 105 105 110 106 100 97 75 29 1 352 347 333 303 174 155 145 140 139 142 149 152 159 159 163 158 141 128 125 130 131 138 149 153 145 158 161 157 154 172 168 154 172 165
194 203 257 232 360 118 180 226 110 93 63 245 159 80 98 213 146 144 203 146 156 130 42 218 210 188 160 287 303 308 358 9 3 8 10 31 55 97 116 125 125 118 118 114 113 114 117 122 132 122 118 163 220 230 239 263 295 147 139 147 154 159 166 165 168 161 117 78 68 74 90 108 121 121 92 72 129 158 162 167 154 173 192 180 148 132
27 287 277 317 100 177 210 151 214 142 197 230 103 179 211 144 105 93 64 47 101 60 190 287 312 316 301 7 342 351 29 356 4 10 33 48 58 72 85 103 112 118 115 111 100 110 102 45 14 175 171 203 210 214 219 202 214 173 145 146 154 158 158 153 127 91 108 127 123 107 84 90 107 86 84 260 233 180 138 116 154 157 185 135 119 114
147 241 294 111 54 7 336 134 108 40 145 95 163 231 179 127 116 123 150 341 58 141 236 34 330 308 33 223 338 7 17 345 1 353 352 24 101 112 129 131 133 132 115 84 69 36 236 207 198 197 195 207 211 212 203 190 178 164 156 157 156 162 163 168 144 123 108 106 90 89 70 22 47 53 16 332 309 304 143 124 113 107 139 168 118 103
119 314 302 271 233 279 345 72 43 357 35 151 199 162 116 206 167 341 98 94 117 171 270 347 319 274 161 269 357 335 337 319 328 345 354 3 20 36 45 39 49 71 102 118 95 306 336 22 16 10 355 306 269 230 199 186 176 166 167 169 168 174 160 97 66 55 54 52 47 53 80 66 341 192 215 198 208 197 183 174 163 161 187 106 102 106
48 166 286 298 147 331 16 71 174 270 335 35 87 78 327 107 152 129 197 162 118 191 80 263 47 191 231 222 308 285 290 289 304 330 334 328 354 22 38 51 51 52 48 62 85 209 137 47 41 38 18 1 309 198 194 175 160 164 163 164 156 108 98 105 104 111 130 140 124 115 117 154 213 245 265 229 186 184 196 187 176 160 150 175 131 120
144 123 202 291 299 49 121 350 182 160 130 63 48 342 20 31 212 102 41 77 157 159 170 158 300 283 278 248 285 289 289 292 276 276 277 308 329 18 31 63 57 60 67 55 99 98 75 77 84 87 100 90 48 75 97 111 130 129 125 125 115 122 127 133 144 146 137 155 169 155 166 194 209 217 209 237 236 205 190 184 179 179 169 136 158 141
86 152 192 307 25 29 255 279 251 186 162 144 148 175 166 120 127 134 210 53 76 107 192 129 221 265 267 289 293 301 302 296 270 235 243 306 349 23 29 51 85 84 60 49 32 46 60 62 65 84 102 85 75 68 70 63 79 87 90 92 110 127 140 143 155 156 156 184 178 168 180 198 204 195 186 200 217 226 212 186 167 191 167 168 175 158
145 148 93 68 148 68 278 308 316 291 111 120 120 130 135 122 102 95 141 232 44 61 117 147 119 261 284 313 332 328 321 303 275 223 148 27 12 7 9 35 42 60 94 71 44 62 71 73 56 40 48 55 55 60 70 73 82 85 85 97 114 136 158 167 166 165 168 172 174 176 180 190 215 195 184 220 222 203 199 195 132 116 258 205 165 164
103 78 64 354 338 308 306 292 336 322 57 63 28 63 72 63 181 167 175 179 130 177 69 25 73 226 300 359 350 353 352 5 32 57 80 44 17 25 33 32 40 31 26 48 42 55 49 42 36 31 25 27 28 46 63 77 92 95 101 110 109 115 135 164 171 161 166 171 168 168 173 188 189 173 172 190 209 221 185 156 157 141 162 150 110 94
102 291 113 95 19 336 343 343 352 330 44 86 103 358 76 95 65 144 110 39 100 204 172 129 191 243 342 356 4 10 10 23 25 24 54 76 28 30 30 24 24 20 21 20 23 26 30 30 30 28 30 31 17 12 40 107 129 129 125 129 131 138 143 151 153 149 157 165 172 185 200 199 155 184 210 218 182 194 167 156 148 159 147 101 91 118
83 164 91 134 148 162 180 223 234 237 189 233 110 44 30 100 127 82 123 27 117 225 105 129 202 252 277 360 8 8 10 14 15 19 29 44 38 27 29 29 29 30 24 24 23 26 24 23 24 24 22 23 25 27 18 20 80 130 128 146 152 146 147 154 156 161 163 174 179 192 197 195 189 198 193 12 349 155 166 153 141 133 112 117 108 98
126 92 82 140 162 182 190 207 241 113 65 96 211 68 60 48 32 97 97 85 176 169 81 226 161 118 7 357 354 354 7 10 7 13 22 21 18 31 43 41 38 34 29 28 27 21 22 20 15 11 17 23 28 28 31 24 19 35 92 119 162 169 162 162 163 170 175 181 185 185 190 171 155 119 146 159 173 167 158 149 142 127 118 119 123 124
64 66 12 88 54 360 263 251 321 90 117 356 115 92 31 45 51 81 106 201 167 113 248 328 119 92 343 340 342 349 356 6 16 22 22 28 31 37 43 44 39 36 30 32 29 26 24 17 14 15 12 16 19 24 30 34 31 21 19 92 155 153 144 153 165 172 174 166 163 161 145 156 173 175 170 164 170 172 169 155 133 133 139 137 134 137
125 105 262 86 21 30 27 26 7 67 46 71 10 9 54 19 54 96 113 96 95 126 189 155 97 88 323 329 328 344 352 3 23 30 35 43 47 49 49 47 44 40 38 37 30 28 27 25 18 18 20 20 22 24 21 19 16 19 16 10 8 13 165 160 162 161 152 146 151 161 169 182 186 176 158 157 157 157 158 160 153 143 114 100 164 173
91 48 293 108 81 34 9 9 5 78 88 43 24 13 33 78 66 78 66 4 75 103 127 109 90 89 11 331 346 343 333 24 48 51 50 45 42 52 57 51 45 40 38 35 30 29 29 28 26 24 25 24 24 23 23 22 16 10 15 4 355 16 12 27 72 139 146 161 170 175 183 176 165 167 161 159 165 171 169 163 155 152 159 173 181 184
99 266 154 73 71 22 6 38 34 36 77 68 24 33 35 90 75 61 91 77 81 64 79 106 98 78 4 349 21 348 0 56 61 50 49 48 44 51 59 53 46 40 31 29 23 19 20 23 24 25 27 21 19 17 19 21 20 20 15 1 3 6 346 22 40 57 144 185 186 189 182 170 168 161 163 165 163 165 167 162 165 166 165 148 155 197
71 167 71 100 97 80 319 88 64 66 58 61 20 0 2 22 80 354 71 327 116 148 143 96 90 125 100 25 40 25 53 59 64 60 56 50 46 51 55 51 46 38 32 27 25 22 19 17 16 17 15 13 16 17 17 12 11 25 16 351 349 334 351 36 26 20 10 220 229 242 230 206 173 165 168 169 169 168 168 158 159 161 154 159 176 184
84 133 146 119 105 198 186 150 140 122 90 63 268 254 153 55 98 92 39 29 25 131 137 146 171 192 152 168 93 47 59 61 58 44 55 53 52 57 58 56 50 43 37 33 30 28 24 19 14 9 1 5 7 10 4 8 21 17 5 9 348 339 6 34 67 147 253 266 254 260 267 248 219 206 197 198 180 175 169 170 165 157 157 178 183 173
75 138 151 155 130 176 171 193 358 88 158 218 307 298 188 157 163 120 72 359 2 85 176 161 130 137 104 103 103 98 75 69 72 50 54 69 57 54 53 52 49 43 39 37 34 30 23 21 18 11 6 1 356 360 341 359 15 4 357 11 22 27 3 2 4 169 206 208 223 250 264 288 287 261 250 138 154 162 168 168 177 169 164 153 150 168
75 73 112 134 106 161 138 87 87 189 236 319 309 263 174 99 99 104 105 64 36 54 93 97 106 116 136 131 122 115 108 107 81 66 45 34 56 63 60 45 34 31 26 26 26 21 17 19 16 11 6 9 6 357 2 3 358 348 11 16 19 17 19 15 11 34 347 252 234 226 250 259 261 247 241 216 183 183 182 184 161 154 163 160 162 160
103 107 163 44 99 72 82 127 160 239 274 317 356 38 67 124 143 81 65 23 31 25 68 101 122 137 148 153 148 138 121 114 86 64 53 35 43 53 54 42 29 30 25 3 17 3 7 7 7 12 345 337 12 10 12 0 343 360 359 1 16 0 22 22 27 15 13 33 191 241 243 217 217 222 209 181 181 177 185 180 177 169 165 143 144 144
133 105 90 100 19 148 154 106 187 7 358 78 91 193 185 105 45 116 140 217 341 333 68 124 115 113 117 93 229 233 212 57 61 45 25 37 22 24 48 28 21 11 5 345 349 340 328 326 351 339 339 356 14 21 7 353 357 4 6 7 357 355 356 15 16 10 7 356 349 180 195 222 210 215 193 177 167 176 180 179 175 163 161 143 161 162
10 142 230 126 260 115 127 69 10 25 262 235 234 284 344 291 216 176 104 39 334 318 14 135 116 98 90 73 48 203 143 82 41 348 322 347 23 6 346 348 345 347 344 336 338 338 344 345 342 348 2 352 4 14 360 2 7 9 14 5 352 351 346 356 345 338 340 335 313 350 165 159 233 192 197 178 178 179 181 171 158 163 171 150 154 143
35 66 91 129 137 72 69 130 188 162 241 204 194 243 284 275 165 138 68 192 260 150 43 125 113 69 71 73 12 77 73 102 216 254 269 296 343 334 328 317 326 333 338 344 345 345 341 340 337 337 349 357 357 348 354 359 8 15 10 2 355 349 346 341 323 325 320 312 313 326 233 166 145 313 239 223 183 163 158 163 162 150 124 122 117 115
38 5 12 61 93 143 148 119 197 191 131 110 245 272 271 244 155 61 91 261 212 181 128 119 128 139 150 57 67 69 100 135 243 253 237 270 307 285 290 324 335 341 339 336 338 336 327 330 347 349 350 346 335 333 344 350 355 3 360 352 351 356 339 324 315 312 311 311 309 305 290 225 165 174 209 252 254 186 167 153 129 140 128 111 117 119
360 351 44 154 137 59 97 114 8 321 284 271 279 288 312 173 85 124 201 228 196 96 111 157 152 171 146 41 69 84 238 188 216 260 313 338 352 340 336 330 333 342 348 354 345 345 349 344 343 335 329 325 323 332 336 344 343 335 335 333 345 317 305 299 308 315 315 310 301 294 265 221 206 190 196 190 186 167 107 160 142 133 124 120 106 106
12 69 334 67 37 72 163 104 184 219 239 332 296 277 277 107 166 218 232 207 146 138 150 157 165 212 160 102 94 144 238 326 331 336 333 333 323 299 315 331 341 354 9 14 1 359 356 349 344 337 334 329 330 327 329 332 327 314 316 323 309 289 286 302 307 316 319 316 312 292 288 253 212 212 198 174 151 148 135 134 124 127 127 125 126 122
273 86 355 82 136 50 43 77 54 130 239 47 301 330 26 121 233 177 143 109 180 168 152 183 178 189 150 93 203 218 273 304 297 302 316 319 344 348 348 353 358 352 348 350 351 355 351 341 333 328 319 318 318 319 315 324 311 303 304 302 292 295 299 298 304 312 315 313 311 305 297 292 255 201 193 174 171 155 157 159 145 140 138 135 135 133
137 82 21 325 182 149 89 116 183 226 275 311 137 140 291 130 143 151 121 95 38 120 209 294 303 248 186 358 332 327 245 278 319 4 353 349 349 346 349 348 347 343 340 335 333 330 337 325 315 311 309 305 308 310 310 315 308 304 303 291 295 309 312 309 307 309 309 307 305 306 299 302 291 243 184 222 162 142 137 152 153 149 150 146 140 136
333 145 183 160 352 117 186 180 193 259 265 327 57 88 88 90 107 155 101 129 135 271 149 111 296 346 352 320 342 350 334 332 328 350 18 322 326 324 325 323 321 319 320 321 321 326 328 325 321 318 313 310 295 288 296 300 299 300 296 294 314 317 321 316 313 309 301 292 290 293 296 299 299 312 304 242 157 128 128 130 151 134 147 136 137 136
12 83 66 81 63 102 48 53 50 30 32 53 41 58 90 66 26 68 102 83 280 286 144 180 249 321 349 30 5 334 319 316 346 341 340 330 316 301 299 303 304 300 297 303 309 313 312 311 309 310 307 307 309 302 283 275 273 282 284 298 303 304 308 310 309 304 291 287 283 283 280 288 301 292 284 296 315 356 162 162 150 132 144 154 148 146
246 333 57 102 158 62 155 274 348 140 60 8 89 93 70 110 159 144 159 183 210 140 107 313 153 194 243 105 232 278 300 350 343 321 319 318 323 320 320 312 306 302 302 305 299 306 306 305 301 298 300 298 304 307 299 289 274 267 278 284 292 297 299 298 295 293 288 273 271 272 268 258 256 266 276 281 257 264 241 73 165 147 159 171 158 134
355 112 73 76 80 102 209 167 214 16 321 311 58 187 165 154 93 93 186 190 168 145 135 177 121 40 86 110 269 245 294 307 314 311 314 310 309 313 310 308 308 310 304 294 298 299 297 296 292 295 294 292 294 296 295 293 288 283 277 274 275 282 286 286 281 279 282 279 266 256 254 248 234 228 252 255 264 275 277 318 131 108 153 156 158 149
247 42 150 160 86 23 41 43 14 29 354 317 312 291 243 249 265 60 65 113 125 142 114 73 67 172 155 168 146 130 337 290 261 275 289 296 303 307 306 304 303 302 305 311 311 309 300 299 300 296 294 291 291 285 281 281 283 286 281 274 265 259 266 269 272 272 272 275 274 262 247 238 243 229 224 230 202 186 204 221 216 193 217 206 178 166
55 69 164 71 84 143 182 201 144 121 252 253 257 256 279 247 164 136 27 53 283 194 90 105 57 55 134 161 162 165 297 296 293 287 290 294 297 298 304 306 308 308 306 304 302 303 302 301 298 298 296 294 288 279 275 276 275 276 277 276 268 255 250 255 267 272 271 270 267 266 249 235 238 240 235 217 198 164 116 55 30 271 211 223 253 265
89 181 137 141 157 213 237 207 179 143 176 229 205 232 236 199 128 141 217 249 281 310 150 121 112 50 7 265 226 240 294 295 292 295 293 294 292 292 297 304 307 309 308 310 308 307 305 305 304 298 294 292 291 285 280 276 274 273 271 270 266 255 251 254 261 262 263 262 261 254 247 239 231 219 213 204 175 168 155 120 63 42 19 299 217 189